International Skating Union - Official Site

ESSENT ISU WORLD DISTANCES CHAMPIONSHIPS 2012
March 22-25, 2012

Draw | Lap Times | Index | Classification

Referee: Susan  SANDVIG-SHOBE  (USA)
Starter: Jouko  VESTERLUND  (FIN)
StartTime: EndTime: Air Temp: Ice Temp: Humidity:
17:34 18:59
Result 3000m Ladies
Rankings as of Mar 22 2012 8:22PM
Rank: No.: Name: Nation: Time: Behind: Points:
1 19 Martina  SÁBLIKOVÁ CZE CZE 4:01.88200m - 20.27 - (20.2)
600m - 51.15 - (30.8)
1000m - 1:22.79 - (31.6)
1400m - 1:54.62 - (31.8)
1800m - 2:26.50 - (31.8)
2200m - 2:58.26 - (31.7)
2600m - 3:30.26 - (32.0)
3000m - 4:01.88 - (31.6)
40.313
2 20 Stephanie  BECKERT GER GER 4:04.09200m - 20.91 - (20.9)
600m - 52.57 - (31.6)
1000m - 1:24.19 - (31.6)
1400m - 1:55.79 - (31.6)
1800m - 2:27.67 - (31.8)
2200m - 2:59.95 - (32.2)
2600m - 3:32.17 - (32.2)
3000m - 4:04.09 - (31.9)
2.21 40.681
3 55 Ireen  WÜST NED NED 4:04.87200m - 19.28 - (19.2)
600m - 49.42 - (30.1)
1000m - 1:20.66 - (31.2)
1400m - 1:52.50 - (31.8)
1800m - 2:24.24 - (31.7)
2200m - 2:57.02 - (32.7)
2600m - 3:30.83 - (33.8)
3000m - 4:04.87 - (34.0)
2.99 40.811
4 27 Claudia  PECHSTEIN GER GER 4:04.99200m - 20.22 - (20.2)
600m - 51.48 - (31.2)
1000m - 1:23.27 - (31.8)
1400m - 1:55.32 - (32.0)
1800m - 2:27.31 - (31.9)
2200m - 2:59.73 - (32.4)
2600m - 3:32.19 - (32.4)
3000m - 4:04.99 - (32.8)
3.11 40.831
5 53 Linda  de VRIES NED NED 4:06.33200m - 19.64 - (19.6)
600m - 50.24 - (30.6)
1000m - 1:21.42 - (31.1)
1400m - 1:53.17 - (31.7)
1800m - 2:25.92 - (32.7)
2200m - 2:59.03 - (33.1)
2600m - 3:32.65 - (33.6)
3000m - 4:06.33 - (33.6)
4.45 41.055
6 9 Cindy  KLASSEN CAN CAN 4:07.14200m - 20.33 - (20.3)
600m - 51.61 - (31.2)
1000m - 1:22.98 - (31.3)
1400m - 1:54.52 - (31.5)
1800m - 2:26.44 - (31.9)
2200m - 2:58.86 - (32.4)
2600m - 3:32.26 - (33.4)
3000m - 4:07.14 - (34.8)
5.26 41.190
7 63 Yevgenia  DMITRIEVA RUS RUS 4:09.51200m - 20.55 - (20.5)
600m - 51.96 - (31.4)
1000m - 1:23.88 - (31.9)
1400m - 1:56.14 - (32.2)
1800m - 2:28.55 - (32.4)
2200m - 3:01.50 - (32.9)
2600m - 3:35.48 - (33.9)
3000m - 4:09.51 - (34.0)
7.63 41.585
8 51 Diane  VALKENBURG NED NED 4:09.53 (0) 200m - 19.78 - (19.7)
600m - 50.56 - (30.7)
1000m - 1:22.11 - (31.5)
1400m - 1:54.15 - (32.0)
1800m - 2:26.30 - (32.1)
2200m - 2:59.16 - (32.8)
2600m - 3:33.22 - (34.0)
3000m - 4:09.53 - (36.3)
7.65 41.588
8 12 Brittany  SCHUSSLER CAN CAN 4:09.53 (0) 200m - 20.39 - (20.3)
600m - 51.47 - (31.0)
1000m - 1:23.48 - (32.0)
1400m - 1:55.99 - (32.5)
1800m - 2:28.67 - (32.6)
2200m - 3:01.73 - (33.0)
2600m - 3:35.20 - (33.4)
3000m - 4:09.53 - (34.3)
7.65 41.588
10 65 Olga  GRAF RUS RUS 4:09.90200m - 21.09 - (21.1)
600m - 52.45 - (31.3)
1000m - 1:24.69 - (32.2)
1400m - 1:57.44 - (32.7)
1800m - 2:30.28 - (32.8)
2200m - 3:03.07 - (32.7)
2600m - 3:36.27 - (33.2)
3000m - 4:09.90 - (33.6)
8.02 41.650
11 39 Bo-Reum  KIM KOR KOR 4:11.09200m - 20.69 - (20.7)
600m - 52.46 - (31.7)
1000m - 1:24.53 - (32.0)
1400m - 1:57.06 - (32.5)
1800m - 2:30.25 - (33.1)
2200m - 3:03.45 - (33.2)
2600m - 3:37.58 - (34.1)
3000m - 4:11.09 - (33.5)
9.21 41.848
12 44 Do-Yeong  PARK KOR KOR 4:11.13200m - 20.83 - (20.8)
600m - 52.33 - (31.5)
1000m - 1:25.09 - (32.7)
1400m - 1:57.73 - (32.6)
1800m - 2:30.55 - (32.8)
2200m - 3:03.57 - (33.0)
2600m - 3:37.04 - (33.4)
3000m - 4:11.13 - (34.0)
9.25 41.855
13 59 Natalia  CZERWONKA POL POL 4:11.27200m - 19.87 - (19.8)
600m - 50.85 - (30.9)
1000m - 1:22.63 - (31.7)
1400m - 1:54.83 - (32.2)
1800m - 2:27.61 - (32.7)
2200m - 3:01.29 - (33.6)
2600m - 3:35.84 - (34.5)
3000m - 4:11.27 - (35.4)
9.39 41.878
14 74 Jilleanne  ROOKARD USA USA 4:11.93200m - 20.17 - (20.1)
600m - 51.91 - (31.7)
1000m - 1:24.18 - (32.2)
1400m - 1:57.06 - (32.8)
1800m - 2:29.82 - (32.7)
2200m - 3:03.33 - (33.5)
2600m - 3:37.31 - (33.9)
3000m - 4:11.93 - (34.6)
10.05 41.988
15 30 Masako  HOZUMI JPN JPN 4:13.07200m - 20.88 - (20.8)
600m - 52.06 - (31.1)
1000m - 1:24.08 - (32.0)
1400m - 1:56.66 - (32.5)
1800m - 2:29.80 - (33.1)
2200m - 3:03.68 - (33.8)
2600m - 3:38.12 - (34.4)
3000m - 4:13.07 - (34.9)
11.19 42.178
16 31 Eriko  ISHINO JPN JPN 4:13.42200m - 20.24 - (20.2)
600m - 51.84 - (31.6)
1000m - 1:24.05 - (32.2)
1400m - 1:56.83 - (32.7)
1800m - 2:30.29 - (33.4)
2200m - 3:04.09 - (33.8)
2600m - 3:38.57 - (34.4)
3000m - 4:13.42 - (34.8)
11.54 42.236
17 26 Isabell  OST GER GER 4:15.05200m - 20.58 - (20.5)
600m - 52.53 - (31.9)
1000m - 1:25.12 - (32.5)
1400m - 1:58.00 - (32.8)
1800m - 2:31.04 - (33.0)
2200m - 3:04.93 - (33.8)
2600m - 3:39.70 - (34.7)
3000m - 4:15.05 - (35.3)
13.17 42.508
18 57 Mari  HEMMER NOR NOR 4:16.23200m - 20.86 - (20.8)
600m - 53.70 - (32.8)
1000m - 1:26.65 - (32.9)
1400m - 1:59.88 - (33.2)
1800m - 2:33.66 - (33.7)
2200m - 3:07.88 - (34.2)
2600m - 3:42.16 - (34.2)
3000m - 4:16.23 - (34.0)
14.35 42.705
19 2 Anna  ROKITA AUT AUT 4:17.16200m - 20.85 - (20.8)
600m - 53.05 - (32.2)
1000m - 1:26.01 - (32.9)
1400m - 1:59.64 - (33.6)
1800m - 2:33.95 - (34.3)
2200m - 3:08.44 - (34.4)
2600m - 3:43.06 - (34.6)
3000m - 4:17.16 - (34.1)
15.28 42.860
20 32 Shiho  ISHIZAWA JPN JPN 4:17.84200m - 20.61 - (20.6)
600m - 52.77 - (32.1)
1000m - 1:25.60 - (32.8)
1400m - 1:59.40 - (33.8)
1800m - 2:33.57 - (34.1)
2200m - 3:08.12 - (34.5)
2600m - 3:42.92 - (34.8)
3000m - 4:17.84 - (34.9)
15.96 42.973
21 56 Hege  BØKKO NOR NOR 4:18.24200m - 20.31 - (20.3)
600m - 51.81 - (31.5)
1000m - 1:24.81 - (33.0)
1400m - 1:57.73 - (32.9)
1800m - 2:31.45 - (33.7)
2200m - 3:05.81 - (34.3)
2600m - 3:41.37 - (35.5)
3000m - 4:18.24 - (36.8)
16.36 43.040
22 7 Nicole  GARRIDO CAN CAN 4:20.13200m - 21.06 - (21.0)
600m - 53.36 - (32.3)
1000m - 1:26.98 - (33.6)
1400m - 2:00.75 - (33.7)
1800m - 2:34.83 - (34.0)
2200m - 3:09.28 - (34.4)
2600m - 3:44.40 - (35.1)
3000m - 4:20.13 - (35.7)
18.25 43.355
23 61 Katarzyna  WOZNIAK POL POL 4:22.42200m - 20.35 - (20.3)
600m - 51.93 - (31.5)
1000m - 1:24.68 - (32.7)
1400m - 1:58.42 - (33.7)
1800m - 2:33.25 - (34.8)
2200m - 3:08.89 - (35.6)
2600m - 3:45.30 - (36.4)
3000m - 4:22.42 - (37.1)
20.54 43.736
24 72 Maria  LAMB USA USA 4:26.44200m - 20.87 - (20.8)
600m - 53.76 - (32.8)
1000m - 1:27.18 - (33.4)
1400m - 2:01.48 - (34.3)
1800m - 2:36.03 - (34.5)
2200m - 3:11.82 - (35.8)
2600m - 3:48.58 - (36.7)
3000m - 4:26.44 - (37.8)
24.56 44.406